Вернуться в каталог

CZ-6A DEB

АктивенSSO
NORAD 54342·DEBRIS·🇨🇳 China

Запущен Nov 11, 2022 с Taiyuan Satellite Launch Center

Loading…

Ближайшие Пролёты (ближайшие 24 часа)

TLE

СвежийSource: Space-Track

Эпоха: Sep 14, 2026, 09:44 UTC

1 54342U 22151CM  26257.40602591  .00000184  00000-0  12925-3 0  9993
2 54342  98.8478 251.9161 0052742 101.4754 259.2346 14.08985181196856

Отслеживайте CZ-6A DEB в реальном времени с AllMySat

Download on the App Store